Regional Weather Roundup
Issued by NWS

Home | Current Version | Previous Version | Text Only | Print | Product List | Glossary On
Versions: 1 2 3 4 5 6 7 8 9 10 11 12 13 14 15 16 17 18 19 20 21 22 23 24 25 26 27 28 29 30 31 32 33 34 35 36 37 38 39 40 41 42 43 44 45 46 47 48 49 50
000
ASUS44 KLIX 180113
RWRLA
LOUISIANA WEATHER ROUNDUP
NATIONAL WEATHER SERVICE NEW ORLEANS LA
800 PM CDT TUE OCT 17 2017

NOTE: "FAIR" INDICATES FEW OR NO CLOUDS BELOW 12,000 FEET WITH NO
      SIGNIFICANT WEATHER AND/OR OBSTRUCTIONS TO VISIBILITY.
      SKY/WX - SKY CONDITION AND SIGNIFICANT WEATHER.
      TMP - AIR TEMPERATURE.    DP   - DEWPOINT TEMPERATURE.
      RH  - RELATIVE HUMIDITY.  PRES - PRESSURE.
      HX  - HEAT INDEX.         WCI  - WIND CHILL INDEX.

*  THESE STATIONS ARE NOT NWS OR FAA STATIONS AND ARE NOT UNDER
   NWS QUALITY CONTROL.

LAZ040-048-061>063-065-066-069-180200-
SOUTHEAST LOUISIANA

CITY           SKY/WX    TMP DP  RH WIND       PRES   REMARKS
N.O. INTL ARPT CLEAR     70  62  76 E3        30.15R
N.O. LAKEFRONT CLEAR     70  61  73 SE5       30.15R
N.O. DOWNTOWN* FAIR      71  61  70 CALM      30.16R
RESERVE*       FAIR      65  61  86 CALM      30.15R
SLIDELL        CLEAR     66  57  72 NE3       30.15R
BATON ROUGE    CLEAR     63  58  83 N3        30.15R
BOOTHVILLE     PTCLDY    73  63  70 E13G22    30.15R
BELLE CHASSE   NOT AVBL
BOGALUSA*      FAIR      62  58  86 CALM      30.18R
GALLIANO*      CLEAR     67  60  77 NE3       30.14R
NEW ROADS*     FAIR      65  55  71 NE5       30.15S
GONZALES*      FAIR      62  58  87 CALM      30.14R
HAMMOND*       CLEAR     64  55  72 CALM      30.15R
HOUMA*         CLEAR    N/A N/A N/A E3        30.14S
PORT FOURCHON* PTCLDY    72  63  73 NE13G20   30.14R

$$

LAZ041-044-053-054-180200-
SOUTHWEST LOUISIANA

CITY           SKY/WX    TMP DP  RH WIND       PRES   REMARKS
LAKE CHARLES   CLEAR     62  51  67 CALM      30.15R
LAFAYETTE      CLEAR     66  58  75 CALM      30.15R
PATTERSON      NOT AVBL
SALT POINT       N/A     67  56  67 SE3       30.13R
NEW IBERIA     CLEAR     62  55  77 CALM      30.15R
CHENAULT AIRPK CLEAR     63  50  63 N7        30.15R

$$

LAZ027-028-180200-
CENTRAL LOUISIANA

CITY           SKY/WX    TMP DP  RH WIND       PRES   REMARKS
FORT POLK      CLEAR     62  49  64 NE3       30.16R
ALEXANDRIA INT CLEAR     60  48  64 NE5       30.16R
ALEXANDRIA     CLEAR     56  50  80 CALM      30.17R

$$

LAZ001-002-180200-
NORTHWEST LOUISIANA

CITY           SKY/WX    TMP DP  RH WIND       PRES   REMARKS
SHREVEPORT     CLEAR     58  45  62 CALM      30.17R
BARKSDALE AFB  CLEAR     57  46  66 NE3       30.17R
DTN SHREVEPORT CLEAR     59  46  62 E3        30.17S

$$

LAZ014-016-180200-
NORTHEAST LOUISIANA

CITY           SKY/WX    TMP DP  RH WIND       PRES   REMARKS
MONROE         CLEAR     58  49  72 NE3       30.19R
TALLULAH       CLEAR     59  56  89 N5        30.18R

$$




USA.gov is the U.S. government's official web portal to all federal, state and local government web resources and services.